Terminal Aerodrome Forecast
Issued by NWS

Home | Current Version | Previous Version | Text Only | Print | Product List | Glossary On
Versions: 1 2 3 4 5 6 7 8 9 10 11 12 13 14 15 16 17
000
FTUS43 KGRR 311000 AAA
TAFJXN
TAF AMD
KJXN 311018Z 3110/0106 25004KT P6SM SCT014
     FM311200 VRB03KT 3SM BR OVC002
     FM311400 VRB03KT 5SM BR BKN008
     FM311600 23005KT 6SM HZ BKN015
     FM311800 25008KT P6SM VCSH BKN035
     FM010000 VRB03KT P6SM SKC=

USA.gov is the U.S. government's official web portal to all federal, state and local government web resources and services.